Weather observations for the past three days for
El Paso, El Paso International Airport
Imperial (Metric)
Date Time (mdt) Wind (mph) Vis. (mi.) Weather Sky Cond. Temperature (ºF) Relative Humidity Wind Chill (°F) Heat Index (°F) Pressure Precipitation (in)
Air Dwpt 6 hour altimeter (in) sea level (mb) 1 hr 3 hr 6 hr
Max. Min.
13 12:51 N 7 10.00 A Few Clouds FEW100 FEW130 102.9 42.1 12% 98 30.02 1007.2
13 11:51 Calm 10.00 A Few Clouds FEW100 100 43 100 75.9 14% 96 30.03 1007.9
13 10:51 Vrbl 3 10.00 A Few Clouds FEW100 FEW160 95 48 20% 91 30.04 1008.3
13 09:51 Calm 10.00 A Few Clouds FEW160 93.9 48 21% 90 30.05 1008.6
13 08:51 Calm 10.00 A Few Clouds FEW150 88 46.9 24% 85 30.05 1008.5
13 07:51 N 5 10.00 A Few Clouds FEW140 84.9 45 25% 82 30.03 1008.1
13 05:51 S 3 10.00 A Few Clouds FEW140 FEW250 80.1 45 90 79 29% 79 30.01 1007.2
13 04:51 SW 5 10.00 A Few Clouds FEW250 80.1 45 29% 79 29.98 1006.4
13 03:51 Calm 10.00 Fair CLR 82 44.1 26% 80 29.98 1006.1
13 02:51 NE 5 10.00 A Few Clouds FEW250 82 43 25% 80 29.97 1005.9
13 01:51 SW 3 10.00 Fair CLR 87.1 41 20% 84 29.97 1005.9
13 00:51 S 7 10.00 Fair CLR 89.1 43 20% 85 29.97 1006.0
12 23:51 E 9 10.00 Fair CLR 90 39 106 87.1 17% 86 29.98 1006.1
12 22:51 S 6 10.00 Fair CLR 91 35.1 14% 87 29.98 1006.3
12 21:51 S 7 10.00 Fair CLR 93.9 34 12% 89 29.97 1006.0
12 20:51 S 3 10.00 A Few Clouds FEW160 97 32 10% 92 29.96 1005.6
12 19:51 NW 3 10.00 A Few Clouds FEW150 102 32 9% 96 29.95 1005.4
12 18:51 SW 5 10.00 A Few Clouds FEW150 102.9 32 8% 97 29.95 1005.4
12 17:51 N 7 10.00 A Few Clouds FEW150 106 30.9 106 93.9 7% 100 29.96 1005.4
12 16:51 Vrbl 5 10.00 A Few Clouds FEW150 105.1 35.1 9% 99 29.98 1006.1
12 15:51 N 9 G 17 10.00 A Few Clouds FEW140 106 37 9% 100 30 1006.8
12 14:51 SW 7 10.00 A Few Clouds FEW100 FEW130 100.9 42.1 13% 96 30.02 1007.8
12 13:51 Vrbl 5 10.00 A Few Clouds FEW100 FEW130 100 43 14% 96 30.05 1008.6
12 12:51 Calm 10.00 A Few Clouds FEW100 98.1 48 18% 95 30.07 1009.3
12 11:51 Vrbl 5 10.00 A Few Clouds FEW095 95 52 95 75.9 23% 92 30.09 1010.1
12 10:51 E 5 10.00 A Few Clouds FEW075 91 57 32% 90 30.1 1010.7
12 09:51 Calm 10.00 Fair CLR 86 57.9 39% 85 30.11 1010.9
12 08:51 Calm 10.00 Fair CLR 82.9 59 44% 83 30.1 1010.8
12 07:51 NE 5 10.00 Fair CLR 80.1 59 49% 81 30.1 1010.6
12 06:51 E 6 10.00 Fair CLR 77 59 54% 79 30.08 1010.0
12 05:51 NE 3 10.00 Fair CLR 77 57 88 77 50% 79 30.06 1009.4
12 04:51 E 5 10.00 Fair CLR 78.1 57.9 50% 79 30.04 1008.8
12 03:51 E 8 10.00 Fair CLR 80.1 57 45% 80 30.03 1008.3
12 02:51 E 7 10.00 Fair CLR 82 57 43% 82 30.02 1007.9
12 01:51 SE 9 10.00 Fair CLR 84.9 45 25% 82 30.03 1007.9
12 00:51 NW 7 10.00 Fair CLR 87.1 46 24% 84 30.01 1007.4
11 23:51 E 13 10.00 Fair CLR 88 46.9 102 86 24% 85 29.99 1006.9
11 22:51 E 14 G 21 10.00 Fair CLR 89.1 36 15% 85 29.99 1006.8
11 21:51 Calm 10.00 A Few Clouds FEW120 91 36 14% 87 29.96 1005.9
11 20:51 NW 5 10.00 A Few Clouds FEW120 FEW160 FEW250 96.1 35.1 12% 91 29.94 1005.3
11 19:51 W 10 10.00 A Few Clouds FEW120 FEW150 FEW250 99 35.1 11% 94 29.93 1004.9
11 18:51 NW 10 G 16 10.00 A Few Clouds FEW120 FEW150 100.9 34 10% 96 29.91 1004.4
11 17:51 NW 9 G 25 10.00 A Few Clouds FEW120 FEW150 100.9 34 102 93 10% 96 29.91 1004.6
11 16:51 NW 9 G 21 10.00 A Few Clouds FEW120 FEW150 100 33.1 10% 95 29.93 1005.2
11 15:51 W 13 G 18 10.00 A Few Clouds FEW120 FEW150 100.9 34 10% 96 29.95 1005.6
11 14:51 N 12 G 17 10.00 A Few Clouds FEW130 100 37 11% 95 29.97 1006.5
11 13:51 NW 9 10.00 A Few Clouds FEW120 99 36 11% 94 29.99 1007.0
11 12:51 NE 6 10.00 A Few Clouds FEW110 96.1 42.1 15% 92 30.01 1007.8
11 11:51 Calm 10.00 A Few Clouds FEW100 93 43 93.9 69.1 18% 89 30.02 1008.3
11 10:51 Calm 10.00 A Few Clouds FEW085 89.1 45 22% 86 30.04 1009.1
11 09:51 Calm 10.00 A Few Clouds FEW075 84.9 48.9 29% 83 30.05 1009.5
11 08:51 Calm 10.00 Fair CLR 82 48 31% 81 30.05 1009.4
11 07:51 N 3 10.00 Fair CLR 75.9 46 35% 78 30.04 1009.4
11 06:51 NE 8 10.00 Fair CLR 73 44.1 35% 30.03 1008.9
11 05:51 Calm 10.00 Fair CLR 71.1 43 81 71.1 36% 30 1008.1
11 04:51 E 5 10.00 Fair CLR 71.1 39.9 32% 29.99 1007.7
11 03:51 Calm 10.00 Fair CLR 73 39.9 30% 30 1007.8
11 02:51 Calm 10.00 Fair CLR 73.9 39.9 29% 30 1008.0
11 01:51 N 3 10.00 A Few Clouds FEW250 77 41 28% 78 30.01 1008.2
11 00:51 NE 9 10.00 A Few Clouds FEW250 79 41 26% 78 30.02 1008.5
10 23:51 N 8 10.00 A Few Clouds FEW120 FEW250 81 41 96.1 81 24% 79 30.01 1008.2
10 22:51 N 10 10.00 A Few Clouds FEW120 FEW250 82 41 23% 80 30.01 1008.1
10 21:51 N 15 10.00 A Few Clouds FEW120 FEW250 82.9 42.1 24% 81 30 1007.8
10 20:51 N 20 G 28 10.00 A Few Clouds FEW120 FEW250 84.9 43 23% 82 29.98 1007.2
10 19:51 N 22 10.00 Partly Cloudy and Breezy FEW120 SCT250 87.1 43 21% 84 29.95 1006.3
10 18:51 N 17 10.00 Partly Cloudy SCT120 SCT250 93 43 18% 89 29.92 1005.2
10 17:51 NW 12 10.00 Partly Cloudy SCT130 SCT250 95 36 96.1 87.1 13% 90 29.91 1004.9
10 16:51 Vrbl 3 10.00 Partly Cloudy SCT110 SCT250 93.9 42.1 17% 90 29.93 1005.4
10 15:51 Vrbl 6 10.00 Partly Cloudy SCT110 SCT250 91.9 42.1 18% 88 29.94 1006.1
10 14:51 E 6 10.00 Partly Cloudy FEW100 SCT250 91.9 43 18% 88 29.97 1006.8
10 13:51 W 6 10.00 A Few Clouds FEW095 FEW250 91.9 45 20% 88 29.99 1007.5
Date Time (mdt) Wind (mph) Vis. (mi.) Weather Sky Cond. Air Dwpt Max. Min. Relative Humidity Wind Chill (°F) Heat Index (°F) altimeter (in) sea level (mb) 1 hr 3 hr 6 hr
6 hour
Temperature (ºF) Pressure Precipitation (in)